TimeEDT,TemperatureF,Dew PointF,Humidity,Sea Level PressureIn,VisibilityMPH,Wind Direction,Wind SpeedMPH,Gust SpeedMPH,PrecipitationIn,Events,Conditions,WindDirDegrees,DateUTC
12:15 AM,62.6,59.0,88,30.12,10.0,Calm,Calm,-,N/A,,Clear,0,2013-08-27 04:15:00
12:35 AM,61.9,57.9,87,30.12,10.0,Calm,Calm,-,N/A,,Clear,0,2013-08-27 04:35:00
12:55 AM,61.9,58.3,88,30.11,10.0,Calm,Calm,-,N/A,,Clear,0,2013-08-27 04:55:00
1:15 AM,60.3,57.6,91,30.11,10.0,Calm,Calm,-,N/A,,Clear,0,2013-08-27 05:15:00
1:35 AM,60.3,57.0,89,30.10,10.0,Calm,Calm,-,N/A,,Clear,0,2013-08-27 05:35:00
1:55 AM,61.3,58.1,89,30.09,10.0,South,3.5,-,N/A,,Clear,190,2013-08-27 05:55:00
2:15 AM,60.3,57.4,90,30.08,10.0,Calm,Calm,-,N/A,,Clear,0,2013-08-27 06:15:00
2:35 AM,61.9,58.5,89,30.08,10.0,Calm,Calm,-,N/A,,Clear,0,2013-08-27 06:35:00
2:55 AM,62.1,58.8,89,30.08,10.0,Calm,Calm,-,N/A,,Clear,0,2013-08-27 06:55:00
3:15 AM,63.5,59.0,85,30.08,10.0,Calm,Calm,-,N/A,,Scattered Clouds,0,2013-08-27 07:15:00
3:35 AM,63.0,59.0,87,30.07,10.0,Calm,Calm,-,N/A,,Scattered Clouds,0,2013-08-27 07:35:00
3:55 AM,63.9,59.0,84,30.07,10.0,Calm,Calm,-,N/A,,Mostly Cloudy,0,2013-08-27 07:55:00
4:15 AM,64.8,59.2,82,30.08,10.0,Calm,Calm,-,N/A,,Scattered Clouds,0,2013-08-27 08:15:00
4:35 AM,64.8,59.5,83,30.07,10.0,Calm,Calm,-,N/A,,Clear,0,2013-08-27 08:35:00
4:55 AM,64.6,59.4,83,30.07,10.0,Calm,Calm,-,N/A,,Clear,0,2013-08-27 08:55:00
5:15 AM,64.6,59.5,84,30.07,10.0,Calm,Calm,-,N/A,,Clear,0,2013-08-27 09:15:00
5:35 AM,64.8,59.4,83,30.07,10.0,Calm,Calm,-,N/A,,Scattered Clouds,0,2013-08-27 09:35:00
5:55 AM,64.9,59.4,82,30.07,7.0,Calm,Calm,-,N/A,,Mostly Cloudy,0,2013-08-27 09:55:00
6:15 AM,63.7,59.5,86,30.08,10.0,Calm,Calm,-,N/A,,Overcast,0,2013-08-27 10:15:00
6:35 AM,62.1,59.4,91,30.07,7.0,Calm,Calm,-,N/A,,Overcast,0,2013-08-27 10:35:00
6:55 AM,63.5,60.3,89,30.08,7.0,Calm,Calm,-,N/A,,Overcast,0,2013-08-27 10:55:00
7:15 AM,63.7,60.1,88,30.08,7.0,Calm,Calm,-,N/A,,Overcast,0,2013-08-27 11:15:00
7:35 AM,62.6,59.7,90,30.07,5.0,Calm,Calm,-,N/A,,Mostly Cloudy,0,2013-08-27 11:35:00
7:55 AM,64.2,61.0,89,30.08,7.0,NNE,3.5,-,N/A,,Scattered Clouds,30,2013-08-27 11:55:00
8:15 AM,64.9,61.2,88,30.08,7.0,Calm,Calm,-,N/A,,Clear,0,2013-08-27 12:15:00
8:35 AM,67.3,62.2,84,30.08,7.0,Calm,Calm,-,N/A,,Scattered Clouds,0,2013-08-27 12:35:00
8:55 AM,68.5,62.6,81,30.08,7.0,Calm,Calm,-,N/A,,Mostly Cloudy,0,2013-08-27 12:55:00
9:15 AM,69.6,63.1,80,30.07,7.0,Calm,Calm,-,N/A,,Scattered Clouds,0,2013-08-27 13:15:00
9:35 AM,72.3,63.3,73,30.07,7.0,Calm,Calm,-,N/A,,Clear,0,2013-08-27 13:35:00
9:55 AM,75.4,64.8,69,30.07,7.0,WSW,3.5,-,N/A,,Clear,240,2013-08-27 13:55:00
10:15 AM,77.2,65.5,67,30.07,10.0,SW,6.9,-,N/A,,Clear,230,2013-08-27 14:15:00
10:35 AM,79.9,65.7,62,30.05,10.0,SSW,6.9,-,N/A,,Clear,210,2013-08-27 14:35:00
10:55 AM,80.6,64.4,58,30.05,10.0,WSW,5.8,-,N/A,,Clear,250,2013-08-27 14:55:00
11:15 AM,81.0,64.8,58,30.05,10.0,WSW,4.6,-,N/A,,Scattered Clouds,240,2013-08-27 15:15:00
11:35 AM,82.0,65.3,57,30.06,10.0,WNW,4.6,-,N/A,,Scattered Clouds,290,2013-08-27 15:35:00
11:55 AM,83.3,64.8,53,30.05,10.0,WSW,4.6,-,N/A,,Clear,240,2013-08-27 15:55:00
12:15 PM,83.7,63.7,51,30.05,10.0,West,4.6,-,N/A,,Clear,260,2013-08-27 16:15:00
12:35 PM,84.6,63.1,48,30.05,10.0,Calm,Calm,-,N/A,,Clear,0,2013-08-27 16:35:00
12:55 PM,85.1,63.5,48,30.04,10.0,West,6.9,-,N/A,,Clear,260,2013-08-27 16:55:00
1:15 PM,86.9,63.9,46,30.03,10.0,West,10.4,-,N/A,,Scattered Clouds,280,2013-08-27 17:15:00
1:35 PM,86.4,62.1,44,30.03,10.0,NW,11.5,-,N/A,,Scattered Clouds,310,2013-08-27 17:35:00
1:55 PM,87.1,62.2,43,30.03,10.0,NW,8.1,-,N/A,,Clear,320,2013-08-27 17:55:00
2:15 PM,87.1,62.2,43,30.03,10.0,NW,10.4,-,N/A,,Scattered Clouds,310,2013-08-27 18:15:00
2:35 PM,85.6,62.8,46,30.03,10.0,NW,8.1,-,N/A,,Scattered Clouds,320,2013-08-27 18:35:00
2:55 PM,85.1,62.8,47,30.02,10.0,NNW,8.1,-,N/A,,Scattered Clouds,330,2013-08-27 18:55:00
3:15 PM,84.4,63.0,48,30.02,10.0,NW,9.2,-,N/A,,Clear,320,2013-08-27 19:15:00
3:35 PM,83.7,62.8,49,30.02,10.0,NW,9.2,-,N/A,,Scattered Clouds,320,2013-08-27 19:35:00
3:55 PM,82.8,62.4,50,30.02,10.0,NW,5.8,-,N/A,,Scattered Clouds,320,2013-08-27 19:55:00
4:15 PM,81.9,62.8,52,30.02,10.0,WNW,4.6,-,N/A,,Mostly Cloudy,290,2013-08-27 20:15:00
4:35 PM,80.8,61.5,52,30.02,10.0,WNW,4.6,-,N/A,,Overcast,300,2013-08-27 20:35:00
4:55 PM,81.0,61.9,52,30.01,10.0,NW,3.5,-,N/A,,Mostly Cloudy,310,2013-08-27 20:55:00
5:15 PM,80.1,62.8,55,30.01,10.0,WNW,3.5,-,N/A,,Overcast,300,2013-08-27 21:15:00
5:35 PM,79.3,64.2,60,30.00,10.0,Calm,Calm,-,N/A,Rain,Light Rain,0,2013-08-27 21:35:00
5:55 PM,80.1,63.3,56,30.00,10.0,WNW,3.5,-,N/A,,Mostly Cloudy,290,2013-08-27 21:55:00
6:15 PM,80.6,62.1,53,29.99,10.0,Calm,Calm,-,N/A,,Scattered Clouds,0,2013-08-27 22:15:00
6:35 PM,79.9,62.2,55,30.00,10.0,Calm,Calm,-,N/A,,Clear,0,2013-08-27 22:35:00
6:55 PM,78.6,66.4,66,30.00,10.0,Calm,Calm,-,N/A,,Clear,0,2013-08-27 22:55:00
7:15 PM,77.9,65.8,66,30.00,7.0,Calm,Calm,-,N/A,,Clear,0,2013-08-27 23:15:00
7:35 PM,76.3,66.7,72,30.00,10.0,ESE,3.5,-,N/A,,Clear,110,2013-08-27 23:35:00
7:55 PM,75.6,66.4,73,30.00,7.0,Calm,Calm,-,N/A,,Clear,0,2013-08-27 23:55:00
8:15 PM,74.3,66.7,77,30.01,10.0,Calm,Calm,-,N/A,,Scattered Clouds,0,2013-08-28 00:15:00
8:35 PM,72.7,66.6,81,30.02,7.0,Calm,Calm,-,N/A,,Scattered Clouds,0,2013-08-28 00:35:00
8:55 PM,72.9,66.6,81,30.03,7.0,Calm,Calm,-,N/A,,Scattered Clouds,0,2013-08-28 00:55:00
9:15 PM,72.7,66.2,80,30.03,7.0,Calm,Calm,-,N/A,,Scattered Clouds,0,2013-08-28 01:15:00
9:35 PM,70.9,66.4,86,30.03,5.0,Calm,Calm,-,N/A,,Haze,0,2013-08-28 01:35:00
9:55 PM,72.1,66.2,82,30.03,7.0,Calm,Calm,-,N/A,,Scattered Clouds,0,2013-08-28 01:55:00
10:15 PM,71.2,66.2,84,30.03,7.0,Calm,Calm,-,N/A,,Mostly Cloudy,0,2013-08-28 02:15:00
10:35 PM,70.7,66.0,85,30.03,5.0,Calm,Calm,-,N/A,,Haze,0,2013-08-28 02:35:00
10:55 PM,70.2,66.0,87,30.03,5.0,Calm,Calm,-,N/A,,Mostly Cloudy,0,2013-08-28 02:55:00
11:15 PM,70.0,66.4,88,30.03,5.0,Calm,Calm,-,N/A,,Scattered Clouds,0,2013-08-28 03:15:00
11:35 PM,70.3,66.2,87,30.03,5.0,Calm,Calm,-,N/A,,Scattered Clouds,0,2013-08-28 03:35:00
11:55 PM,70.7,65.7,84,30.03,5.0,Calm,Calm,-,N/A,,Haze,0,2013-08-28 03:55:00